This is the latest recevied weather packets stored in our database for station/object W0AKO. If no packets are shown the sender has not sent any weather packets the latest 10 day(s).
| Time | Temp. | Humidity | Pressure | Rain* | Wind** | Luminosity | Snow |
|---|---|---|---|---|---|---|---|
| 1777940234 | 23.89° C | 10% | 1009.5 hPa | 0 mm | - | 142 W/m² | - |
| 1777939931 | 23.89° C | 10% | 1009.3 hPa | 0 mm | - | 174 W/m² | - |
| 1777939628 | 23.89° C | 10% | 1009.3 hPa | 0 mm | - | 139 W/m² | - |
| 1777939326 | 23.89° C | 10% | 1009.5 hPa | 0 mm | - | 145 W/m² | - |
| 1777939022 | 23.89° C | 10% | 1009.4 hPa | 0 mm | - | 283 W/m² | - |
| 1777938718 | 23.89° C | 10% | 1009.3 hPa | 0 mm | - | 167 W/m² | - |
| 1777938416 | 24.44° C | 10% | 1009.3 hPa | 0 mm | - | 140 W/m² | - |
| 1777938113 | 24.44° C | 10% | 1009.4 hPa | 0 mm | - | 267 W/m² | - |
| 1777937809 | 24.44° C | 10% | 1009.7 hPa | 0 mm | - | 347 W/m² | - |
| 1777937505 | 24.44° C | 10% | 1009.7 hPa | 0 mm | - | 248 W/m² | - |
| 1777937203 | 24.44° C | 10% | 1009.4 hPa | 0 mm | - | 238 W/m² | - |
| 1777936899 | 24.44° C | 10% | 1009.3 hPa | 0 mm | - | 264 W/m² | - |
| 1777936596 | 23.89° C | 10% | 1009.2 hPa | 0 mm | - | 240 W/m² | - |
| 1777936293 | 24.44° C | 10% | 1009.3 hPa | 0 mm | - | 260 W/m² | - |
| 1777935989 | 24.44° C | 10% | 1009.3 hPa | 0 mm | - | 217 W/m² | - |
| 1777935688 | 24.44° C | 10% | 1009.5 hPa | 0 mm | - | 225 W/m² | - |
| 1777935386 | 25° C | 10% | 1009.5 hPa | 0 mm | - | 327 W/m² | - |
| 1777935081 | 24.44° C | 10% | 1009.4 hPa | 0 mm | - | 271 W/m² | - |
| 1777934778 | 25° C | 10% | 1009.3 hPa | 0 mm | - | 230 W/m² | - |
| 1777934475 | 24.44° C | 10% | 1009.4 hPa | 0 mm | - | 319 W/m² | - |
| 1777934172 | 25° C | 10% | 1009.7 hPa | 0 mm | - | 272 W/m² | - |
| 1777933868 | 25° C | 10% | 1009.4 hPa | 0 mm | - | 285 W/m² | - |
| 1777933565 | 25° C | 10% | 1009.4 hPa | 0 mm | - | 411 W/m² | - |
| 1777933262 | 24.44° C | 10% | 1009.1 hPa | 0 mm | - | 304 W/m² | - |
| 1777932959 | 24.44° C | 10% | 1009.4 hPa | 0 mm | - | 308 W/m² | - |
* Rain latest hour (hover to see other rain measurements)
** Current wind speed in m/s (hover to see current wind gust speed)